Wind_Speed
15 14 15 14 14 15 14 14 15 18 17 18 16 13 12 11 14 12 13 12 13 14 13 12 12 13 13 13 12 11 8 9 7 9 11 12 11 15 17 22 26 26 31 39 41
16 16 15 15 16 15 15 16 16 16 17 17 16 16 14 12 13 14 12 12 13 13 13 14 15 15 14 13 12 10 10 11 10 11 10 8 11 15 20 25 26 29 34 39 45
16 16 16 16 16 18 17 17 17 17 16 18 17 18 15 15 13 11 12 13 14 13 13 12 13 14 13 12 11 11 10 10 11 13 11 10 13 17 21 26 29 38 42 45 49
17 16 17 17 17 18 18 19 19 19 19 18 17 17 16 15 9 11 15 15 15 14 14 13 13 13 13 11 11 9 11 9 12 11 13 13 16 18 22 24 31 36 42 47 53
19 19 19 18 18 18 19 19 19 19 19 19 18 17 17 14 13 14 15 13 14 15 14 14 13 12 10 12 10 10 12 10 14 13 14 12 16 18 23 25 29 35 42 50 57
19 17 18 20 21 19 18 20 20 20 18 19 19 18 17 14 14 12 12 13 14 16 15 14 13 12 11 11 8 11 10 9 14 14 13 13 17 19 24 27 31 38 46 51 49
16 20 20 21 21 22 23 23 24 23 21 19 19 18 15 13 14 8 10 13 15 18 18 14 13 11 12 10 11 10 7 11 10 9 12 14 18 20 23 27 32 40 46 48 40
16 17 18 20 21 18 19 21 23 25 29 20 20 19 16 13 8 10 12 15 18 19 19 15 12 10 10 10 9 8 7 10 13 12 10 14 22 19 22 28 33 40 44 46 36
16 18 17 19 22 18 19 22 22 25 24 27 25 22 20 15 11 13 15 18 23 22 19 16 13 9 11 11 6 7 10 11 9 12 11 15 17 18 21 26 37 41 44 47 40
17 18 17 20 19 19 19 18 21 25 24 27 29 28 21 16 20 24 18 17 21 19 18 15 12 9 9 9 5 10 11 14 13 12 11 12 17 16 16 30 39 43 45 48 42
24 20 20 18 20 17 20 21 22 25 22 22 28 33 35 35 31 34 35 21 15 18 16 15 11 8 9 10 11 13 12 14 17 9 10 11 12 14 13 29 41 44 46 49 44
26 20 17 17 20 18 19 20 20 25 29 24 26 30 30 32 33 30 18 15 14 14 14 12 11 8 8 11 12 14 11 15 6 8 10 10 13 17 13 29 40 45 48 52 46
29 16 18 18 19 20 18 19 24 26 24 30 22 22 24 25 23 17 14 9 13 13 13 11 8 7 8 11 12 12 13 18 12 6 7 10 13 10 12 23 35 39 43 47 44
28 16 18 20 22 17 18 17 21 25 18 12 9 6 6 7 10 9 11 10 11 9 9 9 9 8 7 11 11 7 21 16 7 4 3 6 6 8 16 24 34 42 45 47 44
24 22 19 18 19 20 19 19 20 20 5 6 6 6 4 4 7 5 8 8 9 10 7 6 8 6 7 11 9 9 18 6 1 1 3 4 6 7 18 33 42 44 44 46 44
24 19 22 22 18 15 15 17 19 7 6 5 6 5 6 8 9 10 8 8 8 9 8 10 6 4 7 9 6 17 10 2 2 2 1 4 6 5 23 37 43 41 42 44 44
22 20 19 17 18 20 12 18 10 6 7 6 8 13 13 14 13 12 12 11 8 4 8 6 5 4 6 8 5 13 7 3 3 2 4 8 3 8 20 28 39 40 41 42 44
21 25 13 20 27 21 19 14 9 8 11 17 21 19 18 11 10 11 13 12 11 9 7 4 3 2 5 8 7 10 10 4 4 2 5 5 4 9 16 26 32 34 37 38 41
35 27 33 32 27 27 28 18 8 13 13 14 19 20 13 10 11 8 7 11 8 8 3 3 3 3 3 6 12 6 6 6 1 2 2 5 6 9 25 27 27 32 33 37 40
30 34 34 29 27 25 22 21 19 19 23 23 21 10 8 10 8 6 7 5 6 8 5 4 3 5 3 2 6 7 9 3 3 3 4 4 7 10 30 32 31 32 35 35 37
26 24 28 22 25 33 29 20 22 23 22 14 13 13 15 15 13 9 5 5 7 4 5 4 5 3 2 1 3 6 5 4 3 3 4 2 4 15 28 31 32 30 32 34 35
23 27 24 25 18 25 30 23 23 24 25 23 19 20 20 18 12 11 11 9 4 7 4 4 3 3 3 3 2 3 4 4 2 1 3 2 7 20 26 27 28 26 27 29 30
15 24 27 30 24 26 27 24 25 25 27 23 16 15 15 15 9 14 10 13 9 7 3 3 3 2 2 2 3 4 5 4 3 3 4 2 6 22 23 23 24 22 23 25 26
17 27 26 30 37 31 27 32 33 31 31 23 21 20 19 18 17 7 15 13 15 13 7 5 5 5 4 5 6 7 8 7 5 3 4 9 17 17 19 21 21 17 20 23 24
21 29 33 24 20 21 29 32 30 28 29 17 16 18 20 15 14 20 9 11 9 9 6 6 5 6 8 9 10 9 10 9 9 10 7 11 17 14 17 19 21 17 19 20 19
28 28 30 29 29 25 24 28 30 33 31 27 22 18 14 17 14 6 18 11 9 7 9 9 6 6 10 10 8 10 12 10 10 11 11 10 12 14 15 16 19 15 16 18 17
32 26 21 32 30 28 33 32 32 23 30 24 20 18 18 16 13 9 16 16 11 8 7 7 5 5 4 5 11 10 5 4 6 7 8 9 10 13 13 14 16 13 14 16 16
Wind_Direction
301 303 303 307 307 309 313 317 323 325 326 322 322 315 315 303 293 290 286 299 312 312 313 317 320 330 316 312 330 339 336 324 323 318 311 301 301 314 321 325 321 312 306 307 311
307 307 307 306 304 304 306 310 312 315 318 317 317 313 313 303 288 285 281 293 306 312 317 325 329 326 319 326 336 346 341 334 328 325 317 289 300 311 318 324 319 312 306 306 312
308 309 308 307 308 306 304 302 303 308 312 315 318 312 310 302 293 268 279 300 305 310 318 324 327 321 318 328 338 336 340 334 338 330 325 313 309 314 321 322 322 322 319 316 315
307 306 305 307 308 307 303 302 302 304 308 310 311 311 307 299 293 280 291 300 307 312 319 326 325 323 320 332 329 334 338 336 336 328 327 315 305 315 316 318 323 321 321 320 319
313 309 308 306 305 308 308 303 300 300 301 305 307 309 304 294 289 293 293 298 307 313 323 327 323 322 318 323 324 328 333 334 328 322 316 305 311 311 311 314 315 319 325 325 322
322 330 326 305 295 295 302 306 303 300 299 303 305 305 304 298 291 292 295 299 309 314 324 321 317 318 315 321 319 321 324 322 317 314 304 299 307 310 308 310 318 325 330 330 324
322 323 321 326 310 298 291 283 291 300 303 302 301 302 297 300 293 293 297 307 311 320 314 312 312 318 324 326 315 315 314 327 307 312 312 304 303 310 311 319 325 334 333 336 328
319 329 329 331 328 304 309 301 295 294 282 296 300 295 292 291 274 302 311 321 323 319 307 305 305 309 323 325 303 309 316 341 326 327 315 300 310 315 318 322 333 339 338 337 335
311 313 319 327 329 320 305 300 299 304 296 267 286 287 291 271 279 298 311 315 317 310 299 296 299 303 326 336 296 297 313 334 336 320 302 296 306 311 317 334 341 342 342 344 338
297 298 304 315 320 327 332 320 307 301 297 282 281 276 269 272 283 273 291 299 310 291 287 288 287 295 324 340 311 311 326 329 334 307 307 296 299 300 319 344 346 344 345 348 345
279 289 298 308 322 327 334 319 330 321 310 294 290 282 273 285 285 284 287 290 295 279 279 285 272 301 316 340 334 328 326 329 331 318 318 311 302 304 310 342 346 348 348 350 351
290 273 293 299 308 316 322 321 320 319 309 298 285 284 278 275 278 280 286 273 265 268 270 271 269 293 319 346 336 322 319 331 330 309 301 311 307 298 311 347 351 348 352 353 352
283 272 282 287 304 317 316 318 322 328 308 298 295 285 280 276 285 284 270 259 267 269 268 267 261 295 319 343 326 316 323 330 317 309 290 312 299 270 302 337 348 349 356 356 353
259 261 276 288 302 303 308 317 329 317 305 296 315 305 304 302 285 257 259 256 260 261 260 268 247 285 316 331 327 318 329 322 316 311 354 331 294 277 322 328 347 350 358 357 358
246 272 266 293 294 297 299 307 319 333 313 299 301 297 289 283 305 281 248 263 261 265 257 261 262 284 318 331 331 330 328 311 239 284 306 339 288 301 321 338 354 352 355 359 3
246 244 267 282 271 290 292 299 318 315 256 282 292 289 257 250 248 266 272 269 270 268 262 255 262 278 328 336 323 348 330 268 192 267 355 335 332 290 349 350 349 350 356 1 5
251 249 272 291 282 282 282 280 282 220 285 278 286 297 289 277 275 264 277 264 259 278 241 249 256 280 323 348 324 352 352 335 348 349 208 339 305 305 330 340 348 348 356 2 8
265 279 255 289 293 284 278 265 237 260 269 283 293 303 299 281 271 276 273 273 253 261 274 254 243 276 334 10 349 8 32 74 243 306 290 302 285 323 334 344 345 351 358 2 11
262 266 268 279 281 262 265 239 251 275 285 288 304 299 288 280 274 247 272 251 243 243 256 253 236 254 322 18 16 354 8 13 137 355 336 308 296 326 343 346 354 357 359 6 13
257 257 263 261 264 258 248 242 259 276 285 297 291 275 273 288 286 256 231 265 234 236 258 247 247 234 317 340 9 21 17 22 12 39 330 316 291 312 345 356 357 358 0 7 10
256 253 259 273 265 248 237 241 271 279 280 289 281 272 271 287 272 270 242 252 240 237 257 276 251 227 286 265 2 13 25 14 64 54 152 304 279 347 347 351 353 355 357 4 8
254 254 257 261 252 243 232 251 279 285 282 286 278 277 272 274 272 232 228 226 232 242 268 272 272 244 243 247 294 351 5 8 60 238 220 208 285 346 344 349 350 350 356 5 6
265 262 254 251 248 249 247 261 285 281 276 276 271 271 272 272 257 227 220 224 245 266 256 278 240 259 277 275 283 290 313 323 323 285 214 151 312 336 341 349 347 348 357 8 6
268 255 253 255 247 252 246 271 278 277 273 277 266 269 266 265 255 248 225 224 227 239 246 273 254 251 233 291 294 289 299 289 292 273 273 271 316 335 345 349 355 357 2 7 7
237 255 257 255 268 267 259 262 267 270 265 270 267 256 257 256 253 236 227 219 225 219 232 255 267 265 269 280 289 291 291 290 283 271 266 308 320 341 351 352 352 359 7 4 6
237 261 251 266 266 262 254 266 277 268 258 270 262 268 264 255 249 267 209 221 231 229 223 253 265 280 287 284 280 288 279 278 282 278 290 309 328 342 353 359 355 357 2 5 12
236 248 275 268 268 261 265 266 276 270 264 263 259 264 262 254 235 212 206 221 232 222 214 237 254 303 274 288 301 291 208 272 288 291 294 314 326 342 356 3 1 352 3 10 13
Height
3132 3129 3127 3125 3124 3123 3121 3118 3117 3115 3112 3111 3109 3106 3104 3103 3101 3099 3097 3096 3094 3092 3089 3087 3085 3083 3081 3079 3076 3073 3072 3069 3067 3067 3066 3065 3064 3061 3059 3055 3052 3049 3044 3038 3032
3130 3128 3126 3124 3123 3121 3119 3118 3116 3112 3110 3109 3107 3105 3101 3100 3098 3096 3095 3093 3091 3089 3087 3083 3080 3079 3078 3075 3072 3070 3068 3066 3065 3063 3063 3062 3060 3057 3055 3050 3047 3043 3040 3032 3024
3128 3126 3124 3123 3120 3119 3117 3115 3113 3110 3108 3107 3104 3103 3099 3098 3095 3093 3092 3091 3089 3086 3084 3081 3079 3077 3075 3072 3070 3067 3065 3063 3061 3060 3059 3058 3055 3053 3050 3046 3041 3033 3027 3022 3016
3125 3123 3121 3120 3118 3115 3113 3112 3110 3108 3106 3103 3101 3099 3097 3096 3095 3091 3089 3088 3086 3084 3082 3079 3077 3074 3072 3070 3067 3065 3062 3060 3059 3058 3056 3055 3052 3050 3046 3042 3036 3030 3024 3015 3007
3123 3120 3119 3116 3115 3113 3110 3108 3107 3105 3103 3101 3098 3095 3095 3093 3091 3089 3086 3085 3083 3082 3079 3076 3074 3072 3069 3067 3065 3062 3059 3057 3056 3054 3053 3052 3049 3046 3042 3038 3033 3027 3020 3011 2999
3119 3117 3114 3112 3111 3109 3107 3105 3103 3101 3099 3097 3096 3093 3092 3091 3088 3085 3084 3082 3080 3079 3076 3075 3072 3070 3067 3064 3063 3060 3058 3056 3054 3052 3050 3048 3046 3043 3040 3035 3030 3022 3014 3004 2992
3117 3114 3112 3109 3106 3104 3103 3101 3099 3098 3096 3094 3092 3090 3089 3088 3086 3083 3082 3080 3078 3075 3074 3072 3070 3068 3065 3061 3060 3057 3056 3054 3051 3049 3047 3044 3042 3040 3035 3030 3024 3017 3009 2999 2986
3114 3112 3109 3106 3102 3100 3097 3096 3094 3092 3091 3089 3088 3087 3085 3084 3082 3081 3079 3076 3075 3073 3072 3070 3067 3066 3063 3060 3057 3055 3053 3051 3048 3046 3044 3043 3038 3036 3032 3026 3021 3013 3004 2992 2981
3111 3108 3106 3102 3099 3096 3093 3091 3090 3087 3084 3084 3085 3083 3083 3082 3079 3076 3075 3075 3072 3070 3069 3067 3065 3063 3061 3058 3056 3053 3050 3048 3047 3044 3043 3041 3036 3033 3029 3024 3017 3010 2999 2985 2974
3107 3104 3102 3100 3096 3093 3091 3087 3085 3083 3082 3079 3078 3081 3077 3077 3073 3071 3069 3069 3068 3067 3066 3065 3063 3061 3059 3057 3056 3052 3046 3044 3043 3044 3039 3037 3034 3030 3026 3021 3013 3005 2994 2981 2970
3103 3101 3099 3097 3094 3090 3089 3086 3083 3080 3078 3076 3074 3073 3071 3070 3067 3066 3065 3064 3064 3064 3063 3062 3061 3058 3057 3055 3052 3049 3044 3041 3040 3039 3037 3033 3030 3028 3025 3019 3011 3001 2990 2978 2966
3098 3096 3095 3092 3090 3087 3085 3083 3079 3077 3071 3070 3067 3065 3063 3063 3061 3060 3060 3063 3061 3059 3060 3061 3058 3056 3054 3051 3049 3046 3043 3039 3038 3038 3035 3031 3028 3025 3022 3018 3010 2997 2986 2973 2961
3093 3090 3090 3087 3086 3084 3082 3079 3076 3073 3069 3063 3059 3058 3058 3057 3056 3057 3058 3057 3057 3056 3056 3057 3057 3054 3052 3049 3048 3045 3042 3036 3037 3036 3033 3030 3024 3023 3022 3017 3012 3001 2990 2978 2962
3085 3085 3085 3083 3083 3080 3079 3075 3073 3071 3065 3062 3058 3056 3056 3055 3056 3055 3055 3056 3055 3054 3054 3054 3053 3052 3050 3047 3046 3042 3040 3034 3033 3034 3033 3031 3028 3021 3018 3015 3010 2996 2985 2975 2963
3077 3079 3078 3076 3076 3076 3076 3073 3071 3070 3067 3061 3058 3056 3056 3057 3057 3055 3055 3054 3053 3053 3053 3053 3052 3050 3049 3047 3044 3042 3036 3032 3032 3032 3032 3031 3029 3018 3015 3011 3004 2994 2987 2976 2964
3070 3072 3074 3074 3073 3072 3071 3071 3069 3072 3063 3059 3057 3056 3056 3054 3054 3054 3054 3054 3053 3051 3048 3052 3050 3049 3048 3045 3042 3039 3035 3033 3031 3032 3033 3030 3029 3020 3015 3010 3004 2996 2988 2977 2965
3066 3063 3068 3069 3071 3068 3068 3067 3069 3066 3062 3059 3056 3054 3053 3052 3051 3052 3052 3052 3052 3050 3049 3049 3047 3047 3046 3044 3041 3039 3034 3033 3037 3037 3036 3028 3027 3022 3020 3014 3006 2996 2988 2979 2968
3062 3062 3060 3065 3067 3065 3065 3065 3064 3059 3058 3056 3054 3053 3051 3050 3049 3049 3049 3049 3049 3049 3048 3046 3046 3046 3045 3044 3042 3038 3036 3034 3042 3044 3033 3028 3026 3023 3020 3015 3009 3000 2991 2982 2973
3058 3059 3058 3060 3061 3061 3061 3058 3056 3055 3055 3054 3053 3050 3048 3047 3047 3046 3047 3047 3047 3047 3047 3045 3044 3044 3044 3043 3042 3039 3037 3037 3034 3036 3036 3029 3025 3022 3019 3015 3008 2999 2993 2983 2975
3050 3051 3050 3054 3055 3055 3054 3052 3052 3052 3052 3051 3051 3049 3047 3046 3046 3044 3044 3044 3044 3044 3045 3045 3044 3044 3043 3042 3042 3041 3039 3037 3034 3043 3044 3029 3025 3021 3017 3010 3004 2997 2991 2985 2979
3043 3043 3043 3047 3049 3047 3048 3046 3047 3049 3048 3049 3047 3046 3045 3044 3042 3042 3042 3043 3042 3043 3044 3044 3044 3044 3043 3042 3041 3041 3038 3037 3036 3037 3043 3044 3026 3022 3017 3011 3004 2999 2995 2988 2981
3036 3036 3039 3043 3044 3040 3042 3043 3044 3045 3044 3044 3043 3042 3042 3041 3039 3040 3040 3041 3042 3042 3043 3042 3042 3041 3042 3041 3041 3039 3038 3038 3035 3039 3037 3038 3028 3022 3018 3012 3007 3002 2997 2993 2986
3031 3032 3034 3038 3036 3036 3037 3039 3040 3040 3039 3039 3038 3038 3038 3038 3038 3036 3037 3039 3041 3042 3041 3041 3041 3040 3040 3042 3040 3038 3038 3037 3035 3035 3035 3037 3027 3022 3018 3014 3010 3004 2999 2995 2990
3028 3028 3028 3030 3030 3032 3034 3034 3035 3035 3035 3034 3034 3034 3034 3033 3034 3034 3035 3037 3038 3039 3040 3040 3039 3039 3039 3038 3039 3037 3036 3035 3034 3034 3033 3030 3026 3023 3019 3014 3010 3006 3001 2997 2992
3024 3022 3023 3022 3024 3028 3030 3029 3029 3030 3030 3030 3029 3030 3030 3030 3030 3030 3033 3035 3036 3037 3037 3039 3037 3037 3036 3036 3035 3034 3033 3032 3032 3032 3031 3029 3025 3022 3019 3014 3009 3006 3003 2999 2996
3018 3019 3019 3019 3019 3023 3023 3022 3023 3024 3026 3025 3025 3026 3026 3027 3028 3027 3031 3033 3034 3035 3036 3036 3036 3035 3034 3032 3032 3032 3031 3030 3029 3028 3027 3026 3024 3021 3019 3015 3010 3007 3005 3001 2999
3012 3015 3015 3014 3015 3016 3016 3017 3018 3019 3021 3021 3022 3022 3023 3024 3024 3026 3028 3031 3032 3033 3034 3035 3035 3034 3032 3031 3030 3029 3027 3028 3028 3026 3026 3025 3024 3020 3018 3015 3011 3008 3005 3003 3001